Location: Lawrence
(38.9720°N, 95.2350°W)
Time: 05:06:11
(UTC-05:00)

JAS-1B - Visible Passes

Search period start: 25 July 2016 00:00
Search period end: 04 August 2016 00:00
Orbit: 911 x 1744 km, 99.0° (Epoch: 24 July)

Date Brightness Start Highest point End Pass type
(mag) Time Alt. Az. Time Alt. Az. Time Alt. Az.
25 Jul 10.2 21:32:08 10° NNW 21:37:09 22° WNW 21:42:47 10° WSW visible
26 Jul 10.5 21:51:58 10° NNW 21:55:56 16° WNW 22:00:14 10° W visible
27 Jul 10.8 22:12:40 10° NW 22:14:38 11° NW 22:16:40 10° WNW visible
28 Jul 10.2 05:16:59 10° E 05:19:31 13° ENE 05:22:04 10° NNE visible
29 Jul 9.9 05:34:19 10° ESE 05:38:14 19° ENE 05:42:09 10° NNE visible
29 Jul 9.5 20:56:28 10° N 21:02:56 36° WNW 21:10:29 10° SW visible
30 Jul 9.4 05:52:16 10° ESE 05:56:59 28° ENE 06:01:47 10° N visible
30 Jul 10.0 21:15:52 10° N 21:21:49 28° WNW 21:28:36 10° WSW visible
31 Jul 10.4 21:35:28 10° NNW 21:40:38 21° WNW 21:46:22 10° WSW visible
01 Aug 10.7 21:55:23 10° NNW 21:59:22 15° WNW 22:03:41 10° W visible
02 Aug 10.5 05:03:09 10° ENE 05:04:02 10° NE 05:04:56 10° NE visible
02 Aug 10.9 22:16:16 10° NW 22:18:02 11° NW 22:19:50 10° WNW visible
03 Aug 10.1 05:19:27 10° E 05:22:40 16° ENE 05:25:58 10° NNE visible
